TimeEST,TemperatureF,Dew PointF,Humidity,Sea Level PressureIn,VisibilityMPH,Wind Direction,Wind SpeedMPH,Gust SpeedMPH,PrecipitationIn,Events,Conditions,WindDirDegrees,DateUTC
12:52 AM,3.9,-9.9,53,30.24,10.0,SW,9.2,-,N/A,,Clear,220,2014-01-08 05:52:00
1:52 AM,3.0,-8.0,60,30.27,10.0,South,9.2,-,N/A,,Clear,190,2014-01-08 06:52:00
2:52 AM,3.0,-8.0,60,30.31,10.0,SSW,10.4,-,N/A,,Clear,210,2014-01-08 07:52:00
3:52 AM,3.0,-8.0,60,30.33,10.0,SSW,8.1,-,N/A,,Clear,210,2014-01-08 08:52:00
4:52 AM,1.9,-8.0,63,30.33,10.0,Calm,Calm,-,N/A,,Clear,0,2014-01-08 09:52:00
5:52 AM,1.9,-7.1,66,30.36,10.0,Calm,Calm,-,N/A,,Clear,0,2014-01-08 10:52:00
6:52 AM,-0.0,-6.0,76,30.38,10.0,Calm,Calm,-,N/A,,Clear,0,2014-01-08 11:52:00
7:52 AM,1.0,-5.1,75,30.43,10.0,Calm,Calm,-,N/A,,Clear,0,2014-01-08 12:52:00
8:52 AM,6.1,-5.1,60,30.44,10.0,SSW,9.2,-,N/A,,Clear,200,2014-01-08 13:52:00
9:52 AM,10.9,-4.0,51,30.45,10.0,West,6.9,-,N/A,,Clear,280,2014-01-08 14:52:00
10:52 AM,12.9,-4.0,47,30.43,10.0,Variable,4.6,-,N/A,,Clear,0,2014-01-08 15:52:00
11:52 AM,15.1,-2.9,45,30.40,10.0,SSW,9.2,-,N/A,,Clear,200,2014-01-08 16:52:00
12:52 PM,17.1,-2.0,43,30.40,10.0,SW,9.2,-,N/A,,Clear,220,2014-01-08 17:52:00
1:52 PM,18.0,-0.9,44,30.39,10.0,SSW,9.2,-,N/A,,Clear,200,2014-01-08 18:52:00
2:52 PM,18.0,-0.9,44,30.39,10.0,SW,9.2,-,N/A,,Clear,220,2014-01-08 19:52:00
3:52 PM,18.0,-0.0,45,30.40,10.0,WSW,6.9,-,N/A,,Clear,240,2014-01-08 20:52:00
4:52 PM,16.0,1.0,52,30.41,10.0,SSW,4.6,-,N/A,,Clear,210,2014-01-08 21:52:00
5:52 PM,15.1,-0.0,51,30.44,10.0,WSW,5.8,-,N/A,,Clear,240,2014-01-08 22:52:00
6:52 PM,14.0,-0.0,54,30.44,10.0,WSW,6.9,-,N/A,,Clear,240,2014-01-08 23:52:00
7:52 PM,14.0,1.0,56,30.47,10.0,SSW,8.1,-,N/A,,Clear,210,2014-01-09 00:52:00
8:52 PM,14.0,1.0,56,30.46,10.0,Calm,Calm,-,N/A,,Mostly Cloudy,0,2014-01-09 01:52:00
9:52 PM,12.0,3.9,70,30.46,10.0,SSW,4.6,-,N/A,,Overcast,200,2014-01-09 02:52:00
10:52 PM,14.0,3.9,64,30.46,10.0,SSW,4.6,-,N/A,,Overcast,200,2014-01-09 03:52:00
11:52 PM,14.0,3.9,64,30.43,10.0,Calm,Calm,-,N/A,,Overcast,0,2014-01-09 04:52:00